THORAD AGENA D DEB, 5025

Orbit data source: Space-Track

THORAD AGENA D DEB, 5025 is space debris in SSO originally from a launch on Wed, 08 Apr 1970 UTC launched from the Air Force Western Test Range (AFWTR). Debris objects in space refer to the collection of defunct objects orbiting the Earth. Examples of debris include non-operational satellites, rocket bodies, and fragments generated from explosions, collisions, or faulty payload assembly.

Loading next visibility...
Identifier
5025, 1970-025HZ
Orbit
SSO
Country
Flag of USUS
Related business
Manufacturer
Unknown
Mission
Spacecraft
Bus & Motor
Unknown
Mass
Unknown
Launch date (UTC)
1970-04-08 (56 years ago)
Launch vehicle
Unknown
Launch site
Air Force Western Test Range (AFWTR)
Object type
Payload
Rocket body
Debris
Shape & HBR
Unknown shape, 0.1 m
Radar Cross Section
Small (<0.1 m²)

Expand to show TLE details & history
Last TLE update: 14 hours ago

TLE from 14 hours ago
0 THORAD AGENA D DEB
1 05025U 70025HZ  26036.75335080  .00000301  00000-0  53682-3 0  9995
2 05025 100.0825 102.8992 0043085 336.9864 142.7308 13.50765020741657
Epoch: 2026-02-05T18:04Z
TLE epoch observation values (Epoch: 2026-02-05T18:04:49.509Z)
Latitude
58.58272°
Longitude
-107.37316°
Altitude
1,104.834 km
Speed
7.293 km/s
True Right ascension
19h 58m 56s
True Declination
58° 26' 12"
Sunlit
Object was in daylight at epoch
Visualization orbit readout
Latitude
Unknown
Longitude
Unknown
Altitude
Unknown
Speed
Unknown
Apparent Right ascension
Unknown
Apparent Declination
Unknown
Sunlit
N/A
Visualization observer readout
Local Sidereal Time
10:21:21
Azimuth
Unknown
Elevation
Unknown
Doppler factor
Unknown
Orbital elements
Apogee altitude
1,098.842 km
Perigee altitude
1,034.689 km
Semi-major axis
7,444.902 km
Eccentricity
0.00431
Inclination
100.0825°
RAAN
102.8992°
Arg. of periapsis
336.9864°
True anomaly
143.0285°
Mean anomaly
142.7308°
Eccentric anomaly
142.87978°
Mean motion
3.37874 °/min
Orbital period
106.55 mins
BSTAR
0.00053682
Loading maneuver chart data...
Computing Atmospheric mass density...

Documentation

Showing up to 5 results
|